This demonstration page uses our WeatherBlox Daily Observations layout. Learn more.

39.92423, -83.80882

Hourly Observations for April 28, 2017

Temp ( °F °C ) Dew Point ( °F °C ) Humidity (%) Winds ( mph kmh ) Pressure ( in mb ) Visibility ( mi km ) Precip ( " mm )
12:56 am 00:56 Clear 49 9.4 45 7.2 86 86 W 7 11 29.9 1013 10 16.0934 0 0
1:56 am 01:56 Clear 48 8.9 44 6.7 86 86 W 7 11 29.92 1013 10 16.0934 0 0
2:56 am 02:56 Clear 46 7.8 43 6.1 89 89 WNW 6 9 29.94 1014 10 16.0934 0 0
3:56 am 03:56 Clear 47 8.3 43 6.1 86 86 NW 3 6 29.97 1015 10 16.0934 0 0
4:56 am 04:56 Clear 44 6.7 41 5 89 89 ENE 3 6 29.98 1015 10 16.0934 0 0
5:56 am 05:56 Clear 41 5 40 4.4 96 96 E 7 11 29.98 1015 9 14.48406 0 0
6:56 am 06:56 Sunny 44 6.7 42 5.6 93 93 SE 6 9 30.01 1016 10 16.0934 0 0
7:56 am 07:56 Sunny with Mist and Fog 47 8.3 44 6.7 90 90 SSE 6 9 30.04 1017 6 9.65604 0 0
8:56 am 08:56 Sunny 51 10.6 45 7.2 80 80 SSE 7 11 30.07 1018 10 16.0934 0 0
9:56 am 09:56 Sunny 53 11.7 45 7.2 74 74 SE 13 20 30.04 1017 10 16.0934 0 0
10:56 am 10:56 Sunny 56 13.3 47 8.3 72 72 SSE 12 19 30.02 1017 10 16.0934 0 0
11:56 am 11:56 Mostly Cloudy 58 14.4 47 8.3 67 67 S 5 7 30.04 1017 10 16.0934 0 0
12:56 pm 12:56 Sunny 61 16.1 48 8.9 63 63 S 7 11 30.02 1017 10 16.0934 0 0.0254
1:56 pm 13:56 Sunny 63 17.2 47 8.3 56 56 SSE 6 9 30.02 1017 10 16.0934 0 0
2:56 pm 14:56 Mostly Sunny 65 18.3 50 10 59 59 ESE 7 11 30 1016 10 16.0934 0 0
3:56 pm 15:56 Mostly Cloudy 67 19.4 51 10.6 57 57 ESE 7 11 29.98 1015 7 11.26538 0 0
4:56 pm 16:56 Mostly Sunny 70 21.1 53 11.7 55 55 ESE 8 13 29.96 1015 10 16.0934 0 0
6:54 pm 18:54 Cloudy with Nearby Thunderstorms 66 19 54 12 64 64 E 8 13 29.88 1012 10 16.0934 0 0.0254
6:56 pm 18:56 Cloudy with Nearby Thunderstorms 66 18.9 54 12.2 65 65 E 8 13 29.91 1013 10 16.0934 0 0.0254
7:56 pm 19:56 Cloudy with Nearby Thunderstorms 58 14.4 55 12.8 90 90 NNE 20 31 29.92 1013 4 6.43736 0.39 9.906
8:03 pm 20:03 Cloudy with Thunderstorms 57 14 55 13 94 94 N 16 26 29.97 1015 7 11.26538 0.02 0.508
8:27 pm 20:27 Cloudy with Nearby Thunderstorms 57 14 54 12 88 88 ENE 16 26 29.91 1013 7 11.26538 0.12 3.048
8:51 pm 20:51 Mostly Cloudy with Light Rain 57 14 54 12 88 88 E 20 31 29.88 1012 10 16.0934 0.15 3.81
8:56 pm 20:56 Cloudy with Light Rain 57 13.9 54 12.2 90 90 E 18 30 29.9 1013 10 16.0934 0.15 3.81
9:05 pm 21:05 Cloudy with Nearby Thunderstorms 57 14 55 13 94 94 N 9 15 29.97 1015 10 16.0934 0 0.0254
9:15 pm 21:15 Cloudy with Nearby Thunderstorms 57 14 54 12 88 88 NNE 21 33 29.94 1014 10 16.0934 0.01 0.254
9:20 pm 21:20 Cloudy with Nearby Thunderstorms 57 14 54 12 88 88 ENE 20 31 29.91 1013 10 16.0934 0.01 0.254
9:56 pm 21:56 Cloudy with Heavy Thunderstorms 57 13.9 54 12.2 90 90 ENE 14 22 29.96 1015 6 9.65604 0.13 3.302
10:14 pm 22:14 Cloudy with Light Thunderstorms 57 14 54 12 88 88 E 12 19 29.97 1015 10 16.0934 0.02 0.508
10:21 pm 22:21 Cloudy with Nearby Thunderstorms 57 14 54 12 88 88 SSE 12 19 29.97 1015 10 16.0934 0.02 0.508
10:56 pm 22:56 Cloudy with Light Rain 57 13.9 55 12.8 93 93 E 13 20 29.97 1015 10 16.0934 0.15 3.81
11:56 pm 23:56 Cloudy 57 13.9 54 12.2 90 90 ESE 14 22 29.96 1015 10 16.0934 0 0.0254

Powered by AerisWeather